Weather History for South Bend, IN

Change the Weather History Date:

Friday, July 5, 2013

  Actual Average Record
Temperature  
Mean Temperature 71 °F 73 °F  
Max Temperature 82 °F 83 °F 100 °F (1911)
Min Temperature 60 °F 63 °F 48 °F (1967)
Degree Days  
Heating Degree Days 0 0  
Month to date heating degree days 3 0  
Since 1 June heating degree days 40 44  
Since 1 July heating degree days 3 0  
Cooling Degree Days 6 8  
Month to date cooling degree days 15 40  
Year to date cooling degree days 276 261  
Since 1 June cooling degree days 180 205  
Growing Degree Days 21 (Base 50)    
Moisture  
Dew Point 62 °F    
Average Humidity 74    
Maximum Humidity 97    
Minimum Humidity 51    
Precipitation  
Precipitation 0.00 in 0.13 in 1.45 in (1966)
Month to date precipitation 0.70 0.60  
Year to date precipitation 21.43 18.11  
Snow  
Snow 0.00 in - - ()
Month to date snowfall 0.0  
Since 1 June snowfall 0.0  
Snow Depth 0.00 in    
Sea Level Pressure  
Sea Level Pressure 30.09 in    
Wind  
Wind Speed 2 mph (SSW)    
Max Wind Speed 13 mph    
Max Gust Speed 16 mph    
Visibility 6 miles    
Events Fog    
T = Trace of Precipitation, MM = Missing Value Source: NWS Daily Summary

Daily Weather History Graph

Daily Weather History Graph

Search for Another Location

Airport:

Trip Planner

Search our weather history database for the weather conditions in past years. The results will help you decide how hot, cold, wet, or windy it might be!

Date:

Astronomy

Jul. 05, 2013 Rise Set
Actual Time 6:16 AM EDT 9:22 PM EDT
Civil Twilight 5:43 AM EDT 9:56 PM EDT
Nautical Twilight 4:59 AM EDT 10:39 PM EDT
Astronomical Twilight 4:08 AM EDT 11:30 PM EDT
Moon 4:16 AM EDT (7/5) 7:16 PM EDT (7/5)
Length of Visible Light 16h 13m
Length of Day
15h 05m
Waning Crescent, 6% of the Moon is Illuminated
Jul 5
Waning Crescent
Jul 8
New
Jul 15
First Quarter
Jul 22
Full
Jul 29
Last Quarter

Hourly Weather History & Observations

Time (EDT) Temp. Heat Index Dew Point Humidity Pressure Visibility Wind Dir Wind Speed Gust Speed Precip Events Conditions
12:54 AM 66.9 °F - 62.1 °F 84% 30.09 in 4.0 mi Calm Calm - N/A   Haze
1:29 AM 64.4 °F - 60.8 °F 88% 30.10 in 2.0 mi Calm Calm - N/A   Clear
1:41 AM 64.4 °F - 60.8 °F 88% 30.10 in 1.8 mi Calm Calm - N/A   Scattered Clouds
1:54 AM 64.9 °F - 62.1 °F 90% 30.08 in 2.0 mi Calm Calm - N/A   Scattered Clouds
2:28 AM 62.6 °F - 60.8 °F 94% 30.10 in 1.5 mi Calm Calm - N/A   Partly Cloudy
2:54 AM 64.0 °F - 60.1 °F 87% 30.09 in 1.5 mi Calm Calm - N/A   Partly Cloudy
3:19 AM 64.4 °F - 60.8 °F 88% 30.08 in 2.0 mi Calm Calm - N/A   Clear
3:44 AM 62.6 °F - 60.8 °F 94% 30.08 in 1.5 mi Calm Calm - N/A   Clear
3:54 AM 63.0 °F - 60.1 °F 90% 30.07 in 1.8 mi Calm Calm - N/A   Clear
4:54 AM 62.1 °F - 59.0 °F 90% 30.08 in 1.8 mi Calm Calm - N/A   Clear
5:12 AM 60.8 °F - 57.2 °F 88% 30.10 in 0.5 mi Calm Calm - N/A Fog Fog
5:19 AM 62.6 °F - 59.0 °F 88% 30.09 in 1.5 mi Calm Calm - N/A   Partly Cloudy
5:33 AM 62.6 °F - 59.0 °F 88% 30.09 in 4.0 mi Calm Calm - N/A   Clear
5:54 AM 61.0 °F - 59.0 °F 93% 30.08 in 4.0 mi Calm Calm - N/A   Clear
6:54 AM 61.0 °F - 57.9 °F 90% 30.09 in 4.0 mi Calm Calm - N/A   Partly Cloudy
7:54 AM 66.0 °F - 62.1 °F 87% 30.10 in 4.0 mi Calm Calm - N/A   Clear
8:54 AM 68.0 °F - 63.0 °F 84% 30.11 in 5.0 mi Calm Calm - N/A   Haze
9:54 AM 71.1 °F - 64.0 °F 78% 30.12 in 6.0 mi Calm Calm - N/A   Haze
10:54 AM 75.0 °F - 64.0 °F 69% 30.12 in 9.0 mi Calm Calm - N/A   Clear
11:54 AM 77.0 °F - 64.0 °F 64% 30.12 in 10.0 mi NNW 4.6 mph - N/A   Mostly Cloudy
12:54 PM 79.0 °F - 64.0 °F 60% 30.12 in 10.0 mi Calm Calm - N/A   Mostly Cloudy
1:54 PM 78.1 °F - 63.0 °F 60% 30.11 in 10.0 mi Calm Calm - N/A   Overcast
2:54 PM 79.0 °F - 64.0 °F 60% 30.10 in 10.0 mi ESE 3.5 mph - N/A   Mostly Cloudy
3:54 PM 80.1 °F 81.9 °F 64.9 °F 60% 30.09 in 10.0 mi SSE 5.8 mph - N/A   Scattered Clouds
4:54 PM 80.1 °F 81.9 °F 64.9 °F 60% 30.06 in 10.0 mi SSW 3.5 mph - N/A   Mostly Cloudy
5:54 PM 82.0 °F 83.1 °F 63.0 °F 52% 30.06 in 10.0 mi South 9.2 mph - N/A   Partly Cloudy
6:54 PM 82.0 °F 83.1 °F 63.0 °F 52% 30.04 in 10.0 mi SW 9.2 mph - N/A   Clear
7:54 PM 80.1 °F 81.7 °F 64.0 °F 58% 30.04 in 10.0 mi SW 6.9 mph - N/A   Scattered Clouds
8:54 PM 78.1 °F - 64.9 °F 64% 30.05 in 10.0 mi SSW 5.8 mph - N/A   Clear
9:54 PM 77.0 °F - 64.9 °F 66% 30.06 in 10.0 mi South 3.5 mph - N/A   Clear
10:54 PM 73.0 °F - 64.9 °F 76% 30.08 in 10.0 mi Calm Calm - N/A   Clear
11:54 PM 72.0 °F - 64.9 °F 78% 30.09 in 10.0 mi Calm Calm - N/A   Clear